Location: Mercogliano
(40.9167°N, 14.7333°E)
Time: 21:19:16
(UTC+00:00)

CZ-2C R/B - Pass Details

Date: 22 January 2021
Orbit: 785 x 870 km, 98.2° (Epoch: 06 March)

Event Time Altitude Azimuth Distance (km) Brightness Sun altitude
Exits shadow 17:07:29 14° 56° (ENE) 2,238 4.3 -11.7°
Maximum altitude 17:10:17 19° 92° (E) 1,923 4.0 -12.2°
Drops below altitude 10° 17:14:13 10° 137° (SE) 2,508 4.9 -12.9°
Sets 17:17:18 0° 154° (SSE) 3,443 5.8 -13.5°
